Simultaneous Nadir Overpasses (SNOs) Predictions

Prediction of SNOs between LANDSAT-8 and NOAA-19 Satellite Orbit:

Table of predicted SNOs for the next 14.0 days since TLE Epoch: 5/20/2023
Index Date (LANDSAT-8) Time (LANDSAT-8) Lat,Lon (LANDSAT-8) SZA (LANDSAT-8 ) Date (NOAA-19) Time (NOAA-19) Lat,Lon (NOAA-19) SZA (NOAA-19 ) Distance(km) Time Diff (sec)
1 05/21/2023 13:41:38 80.94, 11.83 62.74 05/21/2023 13:40:48 80.94, 11.87 62.73 1.16 50
2 05/21/2023 14:31:04 -80.96, 179.79 117.22 05/21/2023 14:31:50 -80.95, 179.70 117.22 2.24 46
3 05/23/2023 20:04:49 80.95, -83.80 62.32 05/23/2023 20:04:19 80.94, -83.93 62.29 2.39 30
4 05/23/2023 20:54:16 -80.95, 83.83 117.69 05/23/2023 20:55:21 -80.94, 83.75 117.67 1.36 65
5 05/26/2023 02:28:00 80.95,-179.53 61.91 05/26/2023 02:27:49 80.94,-179.42 61.92 2.10 11
6 05/28/2023 08:51:11 80.95, 84.63 61.52 05/28/2023 08:51:20 80.94, 84.65 61.52 0.62 9
7 05/30/2023 14:24:56 -80.94,-178.95 118.86 05/30/2023 14:23:55 -80.94,-179.09 118.89 2.55 61
8 05/30/2023 15:14:22 80.94, -11.31 61.14 05/30/2023 15:14:51 80.94, -11.34 61.16 0.83 29
9 06/01/2023 20:48:06 -80.95, 85.37 119.16 06/01/2023 20:47:24 -80.94, 85.41 119.18 0.81 42



Historial Predications of SNOs between LANDSAT-8 and NOAA-19
